RYR76 LEPA-EPKK

Flight info

Callsign RYR76
Flight time N/A
Altitude 36000
Route ISTER DCT LUNOR DCT NESUL DCT NEGAT DCT OMEDA DCT RAPUR DCT TORTU DCT ERTEV DCT OSBUL DCT IBUPU DCT ROKIB DCT MALUG DCT INGID DCT GAMLI DCT STO DCT LEDVA DCT NETIR
Aircraft B738/M-SDE2E3FGHIRWXY/LB1

Departure

Time 2026-05-04 17:58
Airport Palma de Mallorca Airport (LEPA)

Arrival

Time N/A
Airport Kraków John Paul II International Airport (EPKK)
Time Latitude Longitude Altitude Speed Heading
2026-05-04 17:10 39.54712 2.73657 37 ft 0 kts 58°
2026-05-04 17:48 39.54702 2.73632 37 ft 4 kts 75°
2026-05-04 17:48 39.54701 2.73599 37 ft 4 kts 112°
2026-05-04 17:48 39.54716 2.73573 35 ft 4 kts 147°
2026-05-04 17:49 39.54720 2.73570 34 ft 1 kts 149°
2026-05-04 17:51 39.54717 2.73572 35 ft 4 kts 149°
2026-05-04 17:51 39.54665 2.73616 37 ft 10 kts 135°
2026-05-04 17:52 39.54674 2.73701 37 ft 10 kts 61°
2026-05-04 17:52 39.54711 2.73782 37 ft 12 kts 59°
2026-05-04 17:52 39.54766 2.73897 37 ft 18 kts 57°
2026-05-04 17:52 39.54829 2.73993 36 ft 10 kts 17°
2026-05-04 17:53 39.54892 2.73964 37 ft 10 kts 336°
2026-05-04 17:53 39.54942 2.73992 37 ft 8 kts 53°
2026-05-04 17:53 39.55000 2.73988 37 ft 13 kts 329°
2026-05-04 17:53 39.55111 2.73901 37 ft 24 kts 328°
2026-05-04 17:54 39.55261 2.73782 37 ft 26 kts 328°
2026-05-04 17:54 39.55419 2.73657 37 ft 26 kts 329°
2026-05-04 17:54 39.55567 2.73544 37 ft 17 kts 329°
2026-05-04 17:54 39.55628 2.73508 37 ft 10 kts 355°
2026-05-04 17:55 39.55687 2.73569 37 ft 14 kts 58°
2026-05-04 17:55 39.55746 2.73694 37 ft 19 kts 58°
2026-05-04 17:55 39.55824 2.73857 36 ft 24 kts 59°
2026-05-04 17:55 39.55917 2.74056 37 ft 28 kts 58°
2026-05-04 17:56 39.56017 2.74268 37 ft 22 kts 58°
2026-05-04 17:56 39.56081 2.74405 35 ft 15 kts 58°
2026-05-04 17:56 39.56132 2.74453 37 ft 0 kts 12°
2026-05-04 17:57 39.56188 2.74432 36 ft 19 kts 332°
2026-05-04 17:57 39.56240 2.74295 37 ft 19 kts 245°
2026-05-04 17:57 39.56058 2.73908 37 ft 90 kts 238°
2026-05-04 17:57 39.55603 2.72953 64 ft 157 kts 237°
2026-05-04 17:58 39.54993 2.71696 858 ft 169 kts 236°
2026-05-04 17:58 39.54314 2.70335 1747 ft 186 kts 236°
2026-05-04 17:58 39.53584 2.68845 2236 ft 209 kts 237°
2026-05-04 17:58 39.52799 2.67214 2871 ft 213 kts 238°
2026-05-04 17:59 39.52004 2.65569 3358 ft 226 kts 237°
2026-05-04 17:59 39.51112 2.63747 3819 ft 244 kts 237°
2026-05-04 17:59 39.49064 2.60333 5520 ft 246 kts 215°
2026-05-04 18:00 39.47548 2.59221 6211 ft 253 kts 211°
2026-05-04 18:00 39.46005 2.58119 6971 ft 254 kts 211°
2026-05-04 18:00 39.44464 2.57003 7789 ft 254 kts 212°
2026-05-04 18:00 39.42789 2.56169 8465 ft 266 kts 191°
2026-05-04 18:01 39.40900 2.56405 9139 ft 282 kts 165°
2026-05-04 18:01 39.39235 2.57807 9997 ft 294 kts 138°
2026-05-04 18:01 39.38093 2.60083 10555 ft 313 kts 120°
2026-05-04 18:02 39.35256 2.64504 11168 ft 332 kts 148°
2026-05-04 18:02 39.33432 2.66332 11696 ft 340 kts 146°
2026-05-04 18:02 39.31661 2.68374 12425 ft 345 kts 142°
2026-05-04 18:02 39.29910 2.70552 12991 ft 353 kts 141°
2026-05-04 18:03 39.28163 2.72815 13583 ft 362 kts 134°
2026-05-04 18:03 39.26875 2.75663 14204 ft 374 kts 114°
2026-05-04 18:03 39.26279 2.78968 14792 ft 384 kts 96°
2026-05-04 18:03 39.26217 2.82445 15370 ft 390 kts 93°
2026-05-04 18:04 39.26399 2.85961 15925 ft 397 kts 81°
2026-05-04 18:04 39.27173 2.89409 16470 ft 403 kts 68°
2026-05-04 18:04 39.29908 2.95819 17578 ft 412 kts 58°
2026-05-04 18:05 39.31403 2.98996 18160 ft 416 kts 57°
2026-05-04 18:05 39.32918 3.02209 18660 ft 420 kts 58°
2026-05-04 18:05 39.34438 3.05456 19155 ft 424 kts 58°
2026-05-04 18:05 39.35966 3.08746 19611 ft 429 kts 58°
2026-05-04 18:06 39.39019 3.15384 20554 ft 437 kts 59°
2026-05-04 18:06 39.40570 3.18778 21014 ft 441 kts 59°
2026-05-04 18:06 39.42138 3.22215 21452 ft 446 kts 59°
2026-05-04 18:07 39.43719 3.25687 21893 ft 450 kts 59°
2026-05-04 18:07 39.45293 3.29147 22327 ft 454 kts 59°
2026-05-04 18:07 39.46900 3.32684 22747 ft 458 kts 59°
2026-05-04 18:07 39.48524 3.36260 23155 ft 462 kts 59°
2026-05-04 18:08 39.50161 3.39869 23550 ft 467 kts 60°
2026-05-04 18:08 39.51811 3.43513 23908 ft 470 kts 60°
2026-05-04 18:08 39.53466 3.47169 24322 ft 472 kts 60°
2026-05-04 18:08 39.55129 3.50848 24727 ft 473 kts 60°
2026-05-04 18:09 39.58470 3.58252 25459 ft 478 kts 60°
2026-05-04 18:09 39.61842 3.65744 26183 ft 483 kts 60°
2026-05-04 18:10 39.63542 3.69525 26529 ft 486 kts 60°
2026-05-04 18:10 39.65243 3.73318 26879 ft 488 kts 60°
2026-05-04 18:10 39.66954 3.77134 27236 ft 490 kts 60°
2026-05-04 18:10 39.68668 3.80961 27575 ft 492 kts 60°
2026-05-04 18:11 39.70390 3.84813 27900 ft 494 kts 60°
2026-05-04 18:11 39.72118 3.88682 28226 ft 496 kts 60°
2026-05-04 18:11 39.73852 3.92571 28549 ft 498 kts 61°
2026-05-04 18:11 39.75594 3.96481 28872 ft 500 kts 61°
2026-05-04 18:12 39.77340 4.00406 29173 ft 503 kts 61°
2026-05-04 18:12 39.79094 4.04353 29468 ft 505 kts 61°
2026-05-04 18:12 39.80849 4.08309 29770 ft 507 kts 61°
2026-05-04 18:12 39.82017 4.10942 29956 ft 508 kts 61°
2026-05-04 18:13 39.83786 4.14937 30184 ft 510 kts 61°
2026-05-04 18:13 39.85561 4.18950 30375 ft 513 kts 61°
2026-05-04 18:13 39.89709 4.28350 30972 ft 516 kts 61°
2026-05-04 18:14 39.90917 4.31092 31131 ft 516 kts 61°
2026-05-04 18:14 39.92704 4.35155 31400 ft 517 kts 61°
2026-05-04 18:14 39.94466 4.39165 31719 ft 515 kts 61°
2026-05-04 18:15 39.98024 4.47277 32327 ft 514 kts 61°
2026-05-04 18:15 40.01558 4.55361 32870 ft 513 kts 61°
2026-05-04 18:15 40.03325 4.59409 33166 ft 512 kts 61°
2026-05-04 18:16 40.05086 4.63447 33458 ft 512 kts 61°
2026-05-04 18:16 40.06844 4.67483 33712 ft 511 kts 60°
2026-05-04 18:16 40.08616 4.71517 33956 ft 511 kts 60°
2026-05-04 18:17 40.12173 4.79540 34456 ft 509 kts 60°
2026-05-04 18:17 40.13942 4.83531 34690 ft 508 kts 60°
2026-05-04 18:17 40.17480 4.91542 35094 ft 507 kts 60°
2026-05-04 18:18 40.19215 4.95488 35322 ft 506 kts 60°
2026-05-04 18:18 40.20969 4.99481 35526 ft 506 kts 60°
2026-05-04 18:18 40.22718 5.03471 35721 ft 505 kts 59°
2026-05-04 18:18 40.24466 5.07462 35903 ft 504 kts 59°
2026-05-04 18:19 40.27983 5.15508 35945 ft 507 kts 59°
2026-05-04 18:19 40.31444 5.23449 35957 ft 504 kts 60°
2026-05-04 18:20 40.34907 5.31412 35959 ft 501 kts 60°
2026-05-04 18:20 40.38347 5.39340 35960 ft 499 kts 60°
2026-05-04 18:21 40.41768 5.47243 35963 ft 497 kts 60°
2026-05-04 18:21 40.45179 5.55137 35966 ft 496 kts 60°
2026-05-04 18:22 40.48575 5.63020 35968 ft 496 kts 60°
2026-05-04 18:22 40.51971 5.70923 35967 ft 496 kts 60°
2026-05-04 18:23 40.55365 5.78843 35970 ft 497 kts 60°
2026-05-04 18:23 40.58732 5.86721 35972 ft 498 kts 60°
2026-05-04 18:24 40.62129 5.94689 35975 ft 499 kts 60°
2026-05-04 18:24 40.65524 6.02675 35973 ft 500 kts 60°
2026-05-04 18:25 40.68917 6.10677 35975 ft 501 kts 60°
2026-05-04 18:25 40.72308 6.18693 35975 ft 501 kts 60°
2026-05-04 18:26 40.75694 6.26722 35977 ft 501 kts 60°
2026-05-04 18:26 40.79077 6.34764 35976 ft 501 kts 60°
2026-05-04 18:27 40.82450 6.42804 35981 ft 500 kts 60°
2026-05-04 18:27 40.85817 6.50850 35983 ft 500 kts 60°
2026-05-04 18:28 40.89170 6.58884 35980 ft 499 kts 60°
2026-05-04 18:28 40.92512 6.66914 35984 ft 498 kts 60°
2026-05-04 18:29 40.95826 6.74899 35981 ft 498 kts 60°
2026-05-04 18:29 40.99149 6.82926 35989 ft 497 kts 60°
2026-05-04 18:30 41.04121 6.94977 35992 ft 497 kts 61°
2026-05-04 18:31 41.07427 7.03016 35992 ft 497 kts 61°
2026-05-04 18:31 41.10734 7.11071 35993 ft 497 kts 60°
2026-05-04 18:32 41.14038 7.19132 35996 ft 497 kts 61°
2026-05-04 18:32 41.17334 7.27201 36001 ft 497 kts 61°
2026-05-04 18:33 41.20606 7.35232 36001 ft 497 kts 61°
2026-05-04 18:33 41.23896 7.43331 36008 ft 498 kts 61°
2026-05-04 18:34 41.27182 7.51443 36005 ft 498 kts 61°
2026-05-04 18:34 41.30462 7.59560 36008 ft 498 kts 61°
2026-05-04 18:35 41.33735 7.67685 36013 ft 499 kts 61°
2026-05-04 18:35 41.37008 7.75830 36016 ft 499 kts 61°
2026-05-04 18:36 41.40652 7.83629 36010 ft 494 kts 44°
2026-05-04 18:36 41.43161 7.86703 36027 ft 488 kts 32°
2026-05-04 18:36 41.46009 7.89079 36014 ft 479 kts 19°
2026-05-04 18:37 41.52152 7.92370 36021 ft 476 kts 15°
2026-05-04 18:37 41.58290 7.95540 36026 ft 477 kts 15°
2026-05-04 18:38 41.64467 7.98815 36024 ft 478 kts 16°
2026-05-04 18:38 41.70650 8.02151 36025 ft 480 kts 16°
2026-05-04 18:39 41.76839 8.05509 36027 ft 480 kts 16°
2026-05-04 18:39 41.83041 8.08878 36028 ft 481 kts 16°
2026-05-04 18:40 41.89249 8.12255 36024 ft 481 kts 16°
2026-05-04 18:40 41.95449 8.15634 36025 ft 481 kts 16°
2026-05-04 18:41 42.01656 8.19024 36031 ft 481 kts 16°
2026-05-04 18:41 42.07856 8.22417 36028 ft 481 kts 16°
2026-05-04 18:42 42.14048 8.25813 36026 ft 480 kts 16°
2026-05-04 18:42 42.20229 8.29211 36027 ft 480 kts 16°
2026-05-04 18:43 42.26405 8.32613 36032 ft 479 kts 16°
2026-05-04 18:43 42.32582 8.36022 36034 ft 479 kts 16°
2026-05-04 18:44 42.38710 8.39412 36031 ft 479 kts 16°
2026-05-04 18:44 42.44874 8.42831 36029 ft 479 kts 16°
2026-05-04 18:45 42.51042 8.46261 36027 ft 479 kts 16°
2026-05-04 18:45 42.57210 8.49697 36027 ft 479 kts 16°
2026-05-04 18:46 42.63386 8.53146 36026 ft 480 kts 16°
2026-05-04 18:46 42.69555 8.56598 36028 ft 480 kts 16°
2026-05-04 18:47 42.75730 8.60061 36028 ft 480 kts 17°
2026-05-04 18:47 42.81903 8.63531 36036 ft 480 kts 17°
2026-05-04 18:48 42.88078 8.67008 36034 ft 480 kts 17°
2026-05-04 18:48 42.94253 8.70489 36033 ft 480 kts 17°
2026-05-04 18:49 43.00424 8.73969 36031 ft 480 kts 17°
2026-05-04 18:49 43.06586 8.77453 36038 ft 479 kts 17°
2026-05-04 18:50 43.12708 8.80923 36024 ft 479 kts 17°
2026-05-04 18:50 43.18858 8.84417 36032 ft 478 kts 17°
2026-05-04 18:51 43.24996 8.87912 36034 ft 477 kts 17°
2026-05-04 18:51 43.31122 8.91407 36032 ft 476 kts 17°
2026-05-04 18:52 43.37267 8.94726 36029 ft 470 kts
2026-05-04 18:52 43.43602 8.95976 36039 ft 453 kts 353°
2026-05-04 18:53 43.49890 8.95852 36032 ft 452 kts 352°
2026-05-04 18:53 43.56145 8.95789 36040 ft 453 kts 353°
2026-05-04 18:54 43.62464 8.96417 36038 ft 466 kts
2026-05-04 18:54 43.65527 8.97973 36050 ft 475 kts 22°
2026-05-04 18:54 43.68340 9.00438 36060 ft 482 kts 33°
2026-05-04 18:55 43.73583 9.06269 36060 ft 484 kts 36°
2026-05-04 18:55 43.81405 9.15170 36060 ft 485 kts 35°
2026-05-04 18:56 43.86663 9.21037 36068 ft 486 kts 34°
2026-05-04 18:56 43.91945 9.26898 36063 ft 486 kts 34°
2026-05-04 18:57 43.97223 9.32764 36074 ft 486 kts 34°
2026-05-04 18:57 44.02456 9.38599 36078 ft 485 kts 34°
2026-05-04 18:58 44.07749 9.44519 36079 ft 485 kts 34°
2026-05-04 18:58 44.12955 9.50355 36082 ft 483 kts 34°
2026-05-04 18:59 44.18185 9.56231 36088 ft 482 kts 34°
2026-05-04 18:59 44.23394 9.62097 36085 ft 481 kts 34°
2026-05-04 19:00 44.27709 9.66967 36090 ft 479 kts 34°
2026-05-04 19:00 44.32917 9.72857 36101 ft 478 kts 34°
2026-05-04 19:01 44.38046 9.78671 36096 ft 477 kts 34°
2026-05-04 19:01 44.43190 9.84517 36097 ft 475 kts 35°
2026-05-04 19:02 44.48317 9.90356 36094 ft 475 kts 35°
2026-05-04 19:02 44.53429 9.96193 36101 ft 473 kts 35°
2026-05-04 19:03 44.58529 10.02028 36097 ft 473 kts 35°
2026-05-04 19:03 44.63625 10.07873 36085 ft 473 kts 36°
2026-05-04 19:04 44.68715 10.13725 36069 ft 472 kts 36°
2026-05-04 19:04 44.73791 10.19576 36059 ft 471 kts 36°
2026-05-04 19:05 44.78859 10.25430 36052 ft 471 kts 36°
2026-05-04 19:05 44.83906 10.31322 36046 ft 471 kts 38°
2026-05-04 19:06 44.88781 10.37490 36051 ft 471 kts 39°
2026-05-04 19:06 44.93614 10.43728 36055 ft 470 kts 39°
2026-05-04 19:07 44.98455 10.49924 36067 ft 470 kts 39°
2026-05-04 19:07 45.03301 10.56104 36071 ft 469 kts 39°
2026-05-04 19:08 45.08108 10.62246 36075 ft 468 kts 39°
2026-05-04 19:08 45.12933 10.68429 36066 ft 468 kts 39°
2026-05-04 19:09 45.17754 10.74621 36060 ft 467 kts 39°
2026-05-04 19:09 45.22635 10.80679 36059 ft 466 kts 38°
2026-05-04 19:10 45.27555 10.86670 36056 ft 466 kts 38°
2026-05-04 19:10 45.32464 10.92679 36045 ft 465 kts 38°
2026-05-04 19:11 45.37352 10.98704 36047 ft 465 kts 39°
2026-05-04 19:11 45.42233 11.04745 36054 ft 465 kts 39°
2026-05-04 19:12 45.49540 11.13815 36041 ft 464 kts 39°
2026-05-04 19:13 45.54371 11.19829 36070 ft 464 kts 39°
2026-05-04 19:13 45.59228 11.25889 36076 ft 464 kts 39°
2026-05-04 19:14 45.64086 11.31964 36071 ft 464 kts 39°
2026-05-04 19:14 45.68937 11.38045 36077 ft 464 kts 39°
2026-05-04 19:15 45.73779 11.44131 36101 ft 463 kts 39°
2026-05-04 19:15 45.78621 11.50231 36108 ft 463 kts 39°
2026-05-04 19:16 45.83457 11.56339 36127 ft 463 kts 39°
2026-05-04 19:16 45.88283 11.62449 36114 ft 463 kts 39°
2026-05-04 19:17 45.93107 11.68568 36113 ft 463 kts 39°
2026-05-04 19:17 45.97992 11.74471 36128 ft 461 kts 37°
2026-05-04 19:18 46.03026 11.80205 36072 ft 461 kts 36°
2026-05-04 19:18 46.05543 11.83075 35786 ft 462 kts 37°
2026-05-04 19:18 46.08048 11.85953 35538 ft 458 kts 37°